Location: Goheenville
(40.9070°N, 79.3720°W)
Time: 12:30:34
(UTC-05:00)

Daily predictions for brighter satellites

Satellite Brightness Start Highest point End
(mag) Time Altitude Azimuth Time Altitude Azimuth Time Altitude Azimuth
Okean 2 Rocket 3.1 18:19:45 10° S 18:24:11 72° E 18:28:37 10° NNE
Cosmos 1190 Rocket 4.2 18:20:36 10° S 18:25:36 52° ESE 18:30:38 10° NNE
Okean 1 4.1 18:24:44 10° NNE 18:28:24 32° ENE 18:32:03 10° SE
Cosmos 1461 3.3 18:26:19 10° NNW 18:30:08 41° NE 18:34:01 10° SE
COSMOS 2428 4.4 18:28:29 10° NNE 18:31:23 14° NE 18:34:17 10° ENE
deb Kosmos-1763 4.2 18:28:33 10° S 18:32:16 56° ESE 18:36:00 10° NNE
CENTAUR R/B 3.6 18:25:29 10° NW 18:33:21 68° WSW 18:41:37 10° SSE
Cosmos 44 3.0 18:29:27 10° NNW 18:33:54 88° NE 18:38:12 10° SSE
Meteor 1-25 Rocket 4.2 18:29:00 10° S 18:34:32 69° E 18:40:11 10° NNE
Cosmos 1346 Rocket 3.9 18:32:07 10° NNW 18:35:56 49° W 18:39:41 10° S
H-2A R/B 4.3 18:36:52 10° ESE 18:39:09 16° ENE 18:41:28 10° NNE
Cosmos 1745 Rocket 4.1 18:34:09 10° S 18:40:29 88° W 18:46:48 10° N
Cosmos 2151 Rocket 3.7 18:38:29 10° S 18:42:51 52° E 18:47:16 10° NNE
Cosmos 1812 2.6 18:42:03 10° N 18:45:56 84° E 18:49:47 10° S
NOAA 12 4.1 18:43:25 10° SSE 18:48:42 76° ENE 18:54:03 10° N
Meteor 1-11 Rocket 4.4 18:43:56 10° SSE 18:48:58 33° E 18:54:08 10° NNE
Okean 1 Rocket 4.2 18:46:17 10° SE 18:49:47 23° E 18:53:19 10° NE
Cosmos 1386 Rocket 4.4 18:44:38 10° S 18:50:45 85° E 18:56:50 10° N
METEOR-M 4.1 18:46:43 10° SSE 18:52:03 79° ENE 18:57:25 10° N
Cosmos 1954 Rocket 4.3 18:48:32 10° S 18:53:24 43° ESE 18:58:20 10° NNE
GEOS 3 Rocket 3.8 18:49:13 10° NE 18:54:20 52° ESE 18:59:29 10° SSW
Cosmos 2219 4.5 18:52:12 10° SE 18:56:02 19° E 18:58:54 13° ENE
HJ-1C 3.9 18:53:49 10° SE 18:56:56 36° ENE 19:00:04 10° N
Cosmos 2360 Rocket 2.6 18:53:29 10° N 18:58:50 42° ENE 19:04:10 10° SE
Cosmos 2219 Rocket 3.9 18:58:38 10° NNE 19:01:17 13° NE 19:02:23 13° ENE
Helios 1B rocket 3.9 19:07:49 19° ESE 19:07:49 19° ESE 19:10:04 10° SE
Cosmos 1602 3.8 19:07:47 10° S 19:11:32 53° E 19:15:21 10° NNE
Cosmos 1633 2.6 19:08:24 10° S 19:12:01 58° E 19:15:39 10° NNE
FREGAT/IRIS 3.3 19:14:05 10° S 19:17:06 56° W 19:20:10 10° NNW
Cosmos 1025 Rocket 4.0 19:14:54 10° NNE 19:18:32 26° ENE 19:18:32 26° ENE
ALOS 2.2 19:15:03 10° SSE 19:19:42 78° ENE 19:24:24 10° N
Cosmos 1833 4.1 19:15:33 10° SSW 19:21:13 73° ESE 19:26:53 10° NNE
Cosmos 1536 Rocket 4.0 19:20:56 10° NNW 19:25:23 66° W 19:29:49 10° S
Cosmos 2333 Rocket 3.8 19:23:12 10° N 19:26:57 17° NE 19:27:00 17° NE
Cosmos 1818 3.9 19:23:15 10° SW 19:28:40 67° NW 19:34:08 10° NNE
SL-16 R/B 3.5 19:27:23 10° NW 19:32:40 41° WSW 19:37:56 10° S
SJ-6B 4.1 19:29:29 10° S 19:33:21 44° W 19:37:09 10° NNW
Cosmos 1741 Rocket 4.2 19:28:44 10° S 19:33:42 46° ESE 19:37:55 14° NE
SL-08 ROCKET BODY 4.5 19:28:38 10° SSE 19:34:36 55° E 19:40:37 10° NNE
FengYun 1-2 T 4.3 19:29:55 10° SSE 19:35:23 81° WSW 19:40:55 10° NNW
TSX-5 4.0 19:33:56 10° SW 19:37:02 50° WNW 19:39:05 19° N
Cosmos 1023 Rocket 4.3 19:32:13 10° SSW 19:37:18 84° ESE 19:42:27 10° NNE
Resurs 01 Rocket 1.6 19:34:46 10° SSE 19:39:10 84° WSW 19:43:36 10° NNW
Cosmos 1340 3.5 19:37:47 10° NNW 19:41:29 52° W 19:45:10 10° S
Meteor 1-19 Rocket 4.2 19:37:04 10° N 19:42:45 85° W 19:48:30 10° S
Cosmos 1238 Rocket 2.9 19:39:57 10° NNW 19:42:54 51° W 19:45:29 12° S
Gbstr 26 Del rocket 2.6 19:40:16 10° SW 19:43:57 60° SE 19:43:57 60° SE
DELTA 2 R/B (1) 3.8 19:41:02 10° W 19:46:34 61° SSW 19:48:38 37° SE
Cosmos 1570 Rocket 4.0 19:42:00 10° NNW 19:47:10 60° ENE 19:48:44 42° SE
Cosmos 2327 Rocket 4.5 19:41:38 10° S 19:47:40 58° E 19:53:50 10° NNE
Cosmos 2181 Rocket 4.3 19:42:06 10° NNW 19:48:18 70° W 19:54:35 10° S
Meteor 1-5 Rocket 4.4 19:43:24 10° S 19:49:12 55° E 19:54:59 10° NNE
Cosmos 2322 Rocket 4.2 19:45:43 10° NW 19:50:25 28° WSW 19:55:07 10° SSW
Tiangong 2 2.7 19:52:12 10° W 19:54:34 28° SW 19:54:34 28° SW
Genesis I 4.1 19:54:10 10° NNW 19:56:54 37° N 19:56:54 37° N
Cosmos 1536 2.9 19:54:48 10° SSW 19:58:47 73° W 20:02:47 10° N
Resurs 1-3 4.2 19:57:36 10° S 20:01:54 56° W 20:06:14 10° NNW
Cosmos 2322 4.0 19:57:47 10° NNW 20:03:30 68° WSW 20:07:31 20° S
CZ-2D R/B 3.6 20:03:05 49° SSW 20:03:49 62° W 20:07:36 10° NNW
Cosmos 2074 Rocket 3.9 20:00:35 10° S 20:06:50 88° E 20:13:09 10° N
Cosmos 1140 Rocket 4.2 20:02:00 10° SW 20:06:59 52° WNW 20:12:03 10° N
Cosmos 2184 Rocket 3.9 20:01:13 10° S 20:07:32 86° E 20:13:51 10° N
Meteor 1-23 Rocket 4.2 20:03:18 10° N 20:09:09 87° W 20:12:58 22° S
Cosmos 2208 Rocket 4.0 20:06:00 10° NNW 20:11:29 89° ENE 20:12:31 60° SSE
H-2A R/B 4.3 20:10:07 12° SSW 20:13:09 33° W 20:16:34 10° NNW
COSMOS 2428 2.5 20:10:52 10° NNW 20:16:35 81° ENE 20:16:59 76° ESE
Meteor 2-4 Rocket 4.1 20:11:22 10° NNW 20:16:50 60° W 20:22:09 10° S
Cosmos 2237 4.2 20:11:23 10° NNW 20:17:08 79° WSW 20:18:32 53° S
Cosmos 2333 4.1 20:14:22 10° NNW 20:20:01 76° NE 20:20:01 76° NE
Helios 1A 3.7 20:21:30 51° WSW 20:21:32 51° W 20:25:37 10° NNW
Cosmos 2237 Rocket 3.6 20:21:01 10° N 20:23:53 25° NNE 20:23:53 25° NNE
Nadezhda 3 Rocket 4.4 20:22:44 10° N 20:27:16 47° NNE 20:27:16 47° NNE
Envisat 3.7 20:33:05 44° NNW 20:33:05 44° NNW 20:36:33 10° NNW
USA 229 DEB 3.6 20:24:43 10° NNW 20:31:53 73° NE 20:32:15 72° E
USA 229 3.6 20:24:49 10° NNW 20:31:59 73° NE 20:32:19 71° ENE
Cosmos 2285 Rocket 3.9 20:27:56 10° NNW 20:34:24 90° ENE 20:34:37 85° SSE
Cosmos 2219 3.6 20:33:56 10° SW 20:39:36 62° WNW 20:41:02 47° N
Cosmos 2360 Rocket 4.0 20:37:54 10° NW 20:42:36 28° WSW 20:47:02 11° SSW
Cosmos 2219 Rocket 3.1 20:40:33 10° NNW 20:44:08 41° NNW 20:44:08 41° NNW
SL-16 R/B 4.4 20:53:14 10° N 20:54:14 14° N 20:54:14 14° N
NOSS 3-1 (C) 4.4 20:57:56 10° NNW 21:03:46 50° N 21:03:46 50° N
Cosmos 2333 Rocket 3.7 21:06:09 10° NNW 21:09:02 31° NNW 21:09:02 31° NNW
